星链-5470 (STARLINK-5470 )

导读

STARLINK-5470是美国SpaceX公司星链(Starlink)低轨卫星互联网星座中的一颗卫星,于2022年12月17日由猎鹰9号火箭发射升空。它属于星链第一代卫星,运行在近地轨道,配备相控阵天线与氪离子霍尔推进器,可自主规避太空碰撞,为全球提供高速低延迟卫星宽带互联网接入服务,是星链大规模组网中重要组成部分。

基本信息
目录编号:
54776
目录名称:
STARLINK-5470
国际标识:
2022-175U
轨道中心:
EARTH
卫星名称:
星链-5470
卫星全名:
星链-5470 (STARLINK-5470 )
卫星状态:
在轨 (已飞行1276 天)
发射日期:
2022-12-17 UTC
国别 :
美国 (US)
星等 :
--
轨道信息
数据来源 国际轨道数据 AOE轨道数据
星历时间 2026-06-15T01:23:25+0800
11小时前
查看轨道信息
2026-06-10T12:00:00+0800
5天前
查看轨道信息
半长轴 6917.883km 6917.92km
偏心率 0.0001209 0.0001276
轨道倾角 53.161° 53.162°
近地点辐角 88.695° 67.106°
升交点赤经 328.034° 348.523°
平近点角 271.418° 1.626°
近地点 538.909km 538.9km
远地点 540.583km 540.666km
周期 95.438分钟 95.438分钟
每日圈数 15.088392 15.088271
详细信息
固有亮度:
5
最大亮度:
2.5
卫星平台:
Starlink v1.5
覆盖范围:
全球
运营商:
太空探索技术公司
运营商所在国:
美国
制造商(研发单位):
太空探索技术公司
制造商所在国:
美国
使用方式:
暂无
卫星简介
星链(Starlink)计划是由太空探索技术公司(SpaceX)提出的一个巨型低轨卫星互联网星座项目,计划在2019年至2024年间在太空搭建由约1.2万颗卫星组成的“星链”网络,其中1584颗将部署在地球上空550千米处的近地轨道,并从2020年开始工作。该卫星仍在工作。
2D轨道图
3D轨道图
轨道高度分析图
轨道倾角分析图
轨道综合分析图
查看轨道综合分析图